TimeCST,TemperatureF,Dew PointF,Humidity,Sea Level PressureIn,VisibilityMPH,Wind Direction,Wind SpeedMPH,Gust SpeedMPH,PrecipitationIn,Events,Conditions,WindDirDegrees,DateUTC
12:15 AM,27.5,19.4,72,30.11,10.0,WSW,12.7,-,N/A,,Overcast,240,2013-01-03 06:15:00
12:35 AM,27.5,19.8,73,30.11,10.0,WSW,12.7,-,N/A,,Overcast,240,2013-01-03 06:35:00
12:55 AM,27.5,20.3,74,30.11,10.0,WSW,11.5,-,N/A,,Overcast,250,2013-01-03 06:55:00
1:15 AM,27.9,21.0,75,30.11,10.0,WSW,10.4,-,N/A,,Overcast,250,2013-01-03 07:15:00
1:35 AM,28.0,21.6,77,30.12,10.0,WSW,10.4,-,N/A,,Overcast,250,2013-01-03 07:35:00
1:55 AM,28.4,22.1,77,30.12,10.0,WSW,10.4,-,N/A,,Overcast,250,2013-01-03 07:55:00
2:15 AM,28.4,23.0,80,30.12,10.0,West,8.1,-,N/A,,Overcast,260,2013-01-03 08:15:00
2:35 AM,28.8,23.4,80,30.13,10.0,WSW,9.2,-,N/A,,Overcast,250,2013-01-03 08:35:00
2:55 AM,28.8,23.5,81,30.13,10.0,WSW,9.2,-,N/A,,Overcast,250,2013-01-03 08:55:00
3:15 AM,28.8,23.7,81,30.12,10.0,WSW,10.4,-,N/A,,Overcast,250,2013-01-03 09:15:00
3:35 AM,28.9,24.3,83,30.13,10.0,WSW,8.1,-,N/A,,Overcast,250,2013-01-03 09:35:00
3:55 AM,28.9,24.4,83,30.13,10.0,WSW,8.1,-,N/A,,Overcast,240,2013-01-03 09:55:00
4:15 AM,28.9,24.4,83,30.12,10.0,WSW,8.1,-,N/A,,Overcast,240,2013-01-03 10:15:00
4:35 AM,28.9,24.6,84,30.13,10.0,WSW,9.2,-,N/A,,Overcast,240,2013-01-03 10:35:00
4:55 AM,29.1,24.8,84,30.13,10.0,WSW,6.9,-,N/A,,Overcast,240,2013-01-03 10:55:00
5:15 AM,29.1,24.8,84,30.13,10.0,SW,8.1,-,N/A,,Overcast,230,2013-01-03 11:15:00
5:35 AM,29.3,25.5,86,30.14,10.0,WSW,9.2,-,N/A,,Overcast,240,2013-01-03 11:35:00
5:55 AM,30.0,26.1,85,30.14,7.0,West,10.4,-,N/A,,Overcast,260,2013-01-03 11:55:00
6:15 AM,30.2,26.2,85,30.15,7.0,West,11.5,-,N/A,,Overcast,260,2013-01-03 12:15:00
6:35 AM,30.2,26.4,86,30.15,7.0,West,10.4,-,N/A,,Overcast,260,2013-01-03 12:35:00
6:55 AM,30.2,26.2,85,30.15,10.0,West,11.5,-,N/A,,Overcast,260,2013-01-03 12:55:00
7:15 AM,30.2,26.2,85,30.16,7.0,West,11.5,-,N/A,,Overcast,270,2013-01-03 13:15:00
7:35 AM,30.2,26.1,85,30.16,10.0,West,11.5,18.4,N/A,,Overcast,280,2013-01-03 13:35:00
7:55 AM,30.2,25.3,82,30.16,10.0,West,10.4,17.3,N/A,,Overcast,280,2013-01-03 13:55:00
8:15 AM,30.2,25.7,83,30.17,10.0,West,12.7,16.1,N/A,,Overcast,280,2013-01-03 14:15:00
8:35 AM,30.7,26.2,83,30.18,10.0,West,13.8,18.4,N/A,,Overcast,280,2013-01-03 14:35:00
8:55 AM,30.9,25.7,81,30.19,10.0,West,12.7,19.6,N/A,,Overcast,280,2013-01-03 14:55:00
9:15 AM,31.1,24.8,77,30.20,10.0,West,13.8,20.7,N/A,,Overcast,280,2013-01-03 15:15:00
9:35 AM,31.1,23.2,72,30.20,10.0,West,16.1,21.9,N/A,,Overcast,280,2013-01-03 15:35:00
9:55 AM,31.1,22.6,71,30.21,10.0,West,16.1,23.0,N/A,,Overcast,280,2013-01-03 15:55:00
10:15 AM,31.5,22.6,70,30.22,10.0,WNW,15.0,-,N/A,,Overcast,290,2013-01-03 16:15:00
10:35 AM,31.1,21.7,68,30.22,10.0,WNW,19.6,23.0,N/A,,Overcast,300,2013-01-03 16:35:00
10:55 AM,31.1,22.3,70,30.23,10.0,WNW,11.5,-,N/A,,Overcast,290,2013-01-03 16:55:00
11:15 AM,30.9,21.9,69,30.21,10.0,West,18.4,29.9,N/A,,Overcast,280,2013-01-03 17:15:00
11:35 AM,30.9,22.1,70,30.20,10.0,West,17.3,21.9,N/A,,Overcast,270,2013-01-03 17:35:00
11:55 AM,33.1,21.9,64,30.20,10.0,West,21.9,31.1,N/A,,Overcast,260,2013-01-03 17:55:00
12:15 PM,33.6,20.5,59,30.20,10.0,West,23.0,27.6,N/A,,Mostly Cloudy,270,2013-01-03 18:15:00
12:35 PM,32.5,20.7,62,30.20,10.0,West,17.3,25.3,N/A,,Mostly Cloudy,280,2013-01-03 18:35:00
12:55 PM,32.0,19.4,60,30.20,10.0,WNW,16.1,24.2,N/A,,Scattered Clouds,290,2013-01-03 18:55:00
1:15 PM,30.9,17.8,58,30.21,10.0,WNW,17.3,25.3,N/A,,Clear,300,2013-01-03 19:15:00
1:35 PM,30.9,17.8,58,30.21,10.0,WNW,12.7,20.7,N/A,,Clear,290,2013-01-03 19:35:00
1:55 PM,30.4,17.8,60,30.22,10.0,WNW,16.1,19.6,N/A,,Clear,300,2013-01-03 19:55:00
2:15 PM,29.5,17.6,61,30.23,10.0,West,12.7,-,N/A,,Clear,280,2013-01-03 20:15:00
2:35 PM,28.6,17.4,63,30.24,10.0,West,15.0,24.2,N/A,,Scattered Clouds,270,2013-01-03 20:35:00
2:55 PM,28.0,18.1,66,30.24,10.0,West,13.8,-,N/A,,Overcast,280,2013-01-03 20:55:00
3:15 PM,26.6,18.3,71,30.25,10.0,WNW,10.4,18.4,N/A,,Mostly Cloudy,290,2013-01-03 21:15:00
3:35 PM,26.1,18.5,73,30.25,10.0,WNW,12.7,-,N/A,,Scattered Clouds,290,2013-01-03 21:35:00
3:55 PM,25.7,18.3,74,30.26,10.0,WNW,13.8,-,N/A,,Overcast,290,2013-01-03 21:55:00
4:15 PM,25.2,18.0,74,30.27,10.0,WNW,11.5,-,N/A,,Overcast,300,2013-01-03 22:15:00
4:35 PM,24.8,17.8,75,30.28,10.0,West,11.5,-,N/A,,Overcast,280,2013-01-03 22:35:00
4:55 PM,24.8,17.6,74,30.28,10.0,West,10.4,-,N/A,,Overcast,280,2013-01-03 22:55:00
5:15 PM,24.6,17.6,75,30.29,10.0,West,10.4,16.1,N/A,,Overcast,280,2013-01-03 23:15:00
5:35 PM,24.6,17.6,75,30.29,10.0,WNW,10.4,-,N/A,,Overcast,290,2013-01-03 23:35:00
5:55 PM,24.6,18.1,76,30.29,10.0,West,9.2,-,N/A,,Overcast,280,2013-01-03 23:55:00
6:15 PM,24.6,18.0,76,30.29,10.0,West,11.5,-,N/A,,Overcast,280,2013-01-04 00:15:00
6:35 PM,23.9,17.6,77,30.30,10.0,West,9.2,17.3,N/A,,Overcast,280,2013-01-04 00:35:00
6:55 PM,23.5,17.2,77,30.30,10.0,West,13.8,-,N/A,,Overcast,280,2013-01-04 00:55:00
7:15 PM,23.0,16.5,76,30.30,10.0,West,10.4,-,N/A,,Overcast,280,2013-01-04 01:15:00
7:35 PM,22.6,16.3,77,30.30,10.0,West,13.8,-,N/A,,Overcast,280,2013-01-04 01:35:00
7:55 PM,22.5,16.5,78,30.31,10.0,West,9.2,-,N/A,,Overcast,280,2013-01-04 01:55:00
8:15 PM,22.1,16.3,79,30.31,10.0,West,12.7,-,N/A,,Overcast,280,2013-01-04 02:15:00
8:35 PM,22.1,16.2,78,30.31,10.0,West,12.7,17.3,N/A,,Overcast,270,2013-01-04 02:35:00
8:55 PM,21.9,16.3,79,30.31,10.0,West,9.2,-,N/A,,Overcast,280,2013-01-04 02:55:00
9:15 PM,21.9,16.3,79,30.32,10.0,West,9.2,-,N/A,,Overcast,280,2013-01-04 03:15:00
9:35 PM,21.7,16.3,80,30.31,10.0,West,9.2,-,N/A,,Overcast,280,2013-01-04 03:35:00
9:55 PM,20.5,15.4,81,30.30,10.0,West,11.5,-,N/A,,Scattered Clouds,270,2013-01-04 03:55:00
10:15 PM,19.4,14.9,83,30.30,10.0,West,9.2,-,N/A,,Clear,280,2013-01-04 04:15:00
10:35 PM,18.7,14.9,85,30.30,10.0,West,9.2,-,N/A,,Clear,270,2013-01-04 04:35:00
10:55 PM,18.1,14.2,84,30.30,10.0,WNW,5.8,-,N/A,,Scattered Clouds,290,2013-01-04 04:55:00
11:15 PM,17.6,13.6,84,30.30,10.0,West,10.4,-,N/A,,Clear,280,2013-01-04 05:15:00
11:35 PM,16.7,12.2,82,30.30,10.0,West,10.4,16.1,N/A,,Clear,280,2013-01-04 05:35:00
11:55 PM,16.7,12.0,82,30.30,10.0,West,13.8,-,N/A,,Clear,270,2013-01-04 05:55:00